Theta_e
314 313 313 313 313 312 313 312 312 311 310 306 303 306 301 298 297 308 310 313 313 311 303 308 308 302 303 309 308 308 307 306 307 306 308 306 307 304 303 304 302 303 303 303 301 303 298 299 298 300 302 302 304 305 305 305 305 305 299 303 301 323 297 295 295 298 302 302 305 307 306 305 303 303 303 304 300 300 296 293 294 294 296 292 293 293 299
313 313 313 313 312 312 312 312 312 311 310 306 305 303 301 300 301 305 316 318 314 308 300 300 301 304 308 307 307 310 308 307 306 306 307 304 304 303 304 304 305 302 305 302 301 303 296 301 300 298 302 301 307 306 306 306 304 303 300 299 305 300 298 294 292 290 291 294 300 299 303 301 298 299 300 302 302 302 302 301 298 293 295 296 293 290 297
313 313 313 313 313 312 312 312 312 312 311 310 304 300 300 300 305 305 310 318 313 305 307 303 301 303 302 303 302 304 305 309 309 308 307 309 305 305 302 304 305 303 304 304 303 303 300 297 301 302 303 302 307 307 307 308 303 307 313 329 306 298 300 293 287 286 286 287 287 290 295 299 300 304 303 303 302 301 299 297 295 288 297 300 295 295 300
313 313 313 313 312 312 312 312 312 312 311 309 305 302 302 302 296 304 309 312 311 309 310 307 304 303 303 302 303 305 302 306 308 309 308 309 306 304 304 305 304 303 302 300 301 300 302 299 299 302 301 303 306 307 307 307 306 325 337 318 310 302 303 297 293 290 288 290 293 299 305 301 297 302 303 302 303 304 301 296 292 291 294 297 300 301 302
313 313 313 313 312 312 312 312 312 311 310 310 305 304 303 305 301 304 300 309 308 306 308 308 308 303 307 299 304 302 304 307 310 310 303 306 306 306 306 305 302 300 300 299 300 301 300 302 302 301 300 301 304 307 306 306 322 340 327 316 305 298 296 301 299 297 297 300 303 304 305 300 302 302 302 302 303 303 300 296 295 298 295 292 301 304 305
313 313 313 313 313 312 312 312 311 311 309 309 307 303 306 298 306 309 309 301 295 302 303 308 307 309 308 302 305 303 303 305 304 309 309 309 305 302 303 304 302 301 300 301 297 301 301 302 300 301 301 302 303 302 304 305 318 316 306 306 302 298 294 300 301 301 300 303 303 303 303 302 302 303 303 303 303 304 302 299 300 300 293 292 299 305 305
313 313 314 313 313 313 313 313 312 310 308 308 307 302 305 307 308 308 312 303 305 305 306 309 309 306 306 304 306 302 302 302 306 307 306 307 304 304 299 301 302 302 302 300 298 301 298 296 303 305 303 302 303 300 302 305 309 308 305 304 304 298 296 299 300 300 301 300 301 302 303 303 302 303 303 303 302 302 302 303 304 303 300 301 307 306 307
313 313 314 313 312 313 313 314 313 311 308 309 308 307 302 303 302 303 309 307 305 306 308 306 305 302 307 300 302 303 303 301 303 306 306 302 304 309 303 302 303 303 303 303 300 303 303 303 303 308 306 303 305 304 306 305 306 307 305 307 306 299 295 308 300 297 300 300 301 302 302 302 302 301 303 303 304 303 304 304 306 308 307 309 308 306 306
313 314 314 313 313 313 313 314 313 311 309 305 304 305 306 305 308 309 303 300 302 307 305 303 302 300 302 300 303 305 306 304 307 306 308 305 303 304 303 306 307 307 307 306 306 308 307 308 308 309 308 303 308 304 304 307 304 305 304 305 305 301 296 301 298 296 295 301 301 300 300 302 302 300 301 302 304 304 303 302 305 302 303 305 305 303 303
313 313 313 313 313 313 313 314 314 311 310 304 303 301 306 308 311 311 306 298 305 301 304 303 302 297 302 306 306 305 306 308 308 303 308 307 306 306 306 307 306 307 306 305 309 309 309 310 310 311 309 308 308 307 307 307 308 304 305 307 301 300 298 296 295 294 293 299 300 299 299 298 297 298 298 302 305 305 305 307 311 307 307 303 301 302 308
312 312 313 313 313 313 313 314 314 313 310 303 301 300 304 304 302 305 306 300 302 303 302 302 302 305 307 307 305 307 307 307 308 302 302 308 305 306 307 306 305 305 306 309 313 313 313 312 312 311 310 310 310 308 307 309 308 308 307 304 305 304 302 299 298 293 293 299 302 301 296 289 290 299 302 303 302 303 301 302 305 306 306 301 300 306 310
312 312 313 313 313 312 313 314 314 314 311 307 306 303 306 307 306 305 302 298 299 304 303 301 303 305 305 305 306 305 305 306 307 309 304 305 305 306 306 304 306 304 310 314 313 313 315 315 314 313 311 310 310 310 309 308 308 310 307 306 305 305 305 300 302 296 293 299 299 294 288 288 298 308 308 306 305 304 303 305 308 306 307 309 308 310 313
312 312 313 313 313 313 313 314 314 313 313 310 307 302 306 308 304 304 304 302 299 303 300 303 306 306 306 305 304 305 307 308 308 309 308 305 303 305 306 305 305 308 313 309 313 311 308 307 306 308 307 307 307 308 309 309 309 308 306 307 305 304 302 303 300 300 296 295 293 288 287 296 308 307 309 310 305 304 303 303 303 308 307 308 308 310 312
312 313 313 313 312 313 313 314 314 314 314 311 307 306 307 307 304 305 305 301 300 304 304 303 304 304 304 304 304 306 307 306 307 308 306 310 306 306 311 314 314 317 315 310 311 306 302 302 298 300 301 303 301 301 304 306 307 307 308 308 307 304 304 301 296 302 293 292 291 292 299 299 302 306 307 305 303 304 301 295 301 307 309 310 311 313 315
312 313 313 312 312 312 313 313 314 314 314 312 310 308 307 307 307 305 307 305 299 303 304 297 302 303 304 304 305 304 303 303 303 303 308 311 309 311 313 315 317 316 314 307 306 306 302 300 295 295 297 295 292 295 303 302 306 308 308 307 307 304 303 301 298 296 297 291 290 289 289 290 294 304 310 311 310 307 305 304 299 306 309 311 314 314 316
313 313 312 312 312 312 312 313 314 315 314 312 311 308 307 309 309 308 307 304 303 295 301 305 306 305 304 304 306 304 302 302 302 303 304 306 308 312 315 316 316 315 312 308 311 306 304 297 296 294 293 296 301 299 295 301 300 304 306 306 306 305 306 306 300 297 298 296 290 288 288 292 300 304 308 311 310 309 308 299 297 306 310 311 316 315 318
313 313 313 312 312 312 312 313 313 314 315 313 309 308 306 311 309 306 304 305 305 300 308 308 307 307 307 305 306 305 304 302 303 300 301 302 306 310 312 315 316 313 312 305 307 302 299 298 299 297 298 303 298 296 301 298 297 298 303 304 304 303 302 302 301 299 297 294 293 289 293 297 304 308 313 312 310 309 303 292 292 300 311 314 317 316 319
312 312 313 313 313 313 313 313 314 314 314 313 310 307 306 310 311 309 305 304 302 303 307 309 306 304 303 304 304 306 308 306 305 306 303 306 308 306 308 311 309 314 316 304 304 300 299 298 295 296 294 303 305 304 292 298 296 297 298 299 298 299 301 300 296 295 298 299 292 294 296 307 311 310 311 308 310 305 293 289 296 305 311 316 317 317 318
312 312 313 313 313 313 313 313 314 314 314 312 311 308 307 310 310 309 307 305 304 299 307 310 310 307 309 310 307 308 308 306 305 302 302 303 305 309 309 312 314 305 311 305 303 300 298 300 302 299 296 298 308 297 302 297 297 301 302 299 299 300 299 299 299 295 294 293 292 291 294 300 307 312 312 311 308 295 291 299 305 312 311 317 318 317 318
312 313 313 312 312 312 312 313 314 315 315 313 309 304 306 308 309 310 305 302 304 302 305 306 307 304 309 306 304 303 305 305 308 304 302 299 307 308 308 302 308 309 307 308 301 304 298 297 299 302 297 298 304 308 299 301 306 302 301 304 299 299 297 294 297 297 296 297 294 290 287 301 314 311 307 311 301 298 302 309 315 313 316 318 319 320 321
312 313 312 312 311 312 312 313 314 315 314 314 311 306 303 306 310 311 313 309 304 300 302 311 310 308 309 307 309 309 306 302 304 302 304 304 307 306 296 300 303 304 303 305 300 302 304 300 302 303 305 302 303 303 296 297 300 306 307 303 304 306 297 295 297 300 291 293 291 290 295 305 314 310 301 304 307 309 312 312 311 316 319 320 322 323 324
313 312 312 312 311 312 313 314 314 314 313 313 312 307 303 307 309 311 311 310 304 302 305 309 311 309 310 311 311 311 310 309 310 310 304 302 308 305 307 308 307 307 311 311 307 306 306 306 307 302 298 300 304 300 302 295 295 302 307 304 295 304 304 303 297 304 300 299 300 305 308 310 313 315 310 314 315 315 314 315 315 315 316 320 323 323 323
312 312 311 311 311 312 312 314 314 313 312 312 311 306 303 305 306 310 308 303 307 308 310 308 310 310 312 313 315 315 315 316 314 313 311 305 303 307 305 307 306 313 317 315 309 308 308 306 303 305 302 303 303 299 299 300 298 302 300 306 305 309 311 310 308 304 311 311 311 313 312 315 315 316 316 316 317 318 318 317 315 316 317 321 322 322 322
311 311 310 310 311 311 312 314 313 313 312 312 311 306 305 306 307 307 305 305 302 300 305 307 304 303 307 308 312 314 316 315 315 315 316 312 302 303 309 310 311 311 313 315 317 310 308 308 306 308 301 305 305 299 297 296 301 305 303 301 306 311 313 309 304 308 297 297 307 311 311 315 318 318 320 320 320 319 318 317 317 318 320 322 324 324 323
311 311 310 310 311 311 312 312 313 313 313 312 311 310 309 306 308 309 303 298 301 301 296 300 303 308 311 314 314 313 315 315 315 316 316 314 310 305 303 311 312 307 306 311 315 311 310 306 305 304 300 307 306 299 302 298 297 306 299 302 304 306 314 309 309 307 301 303 311 313 315 314 316 316 315 316 318 319 319 318 318 319 322 324 324 325 325
311 311 311 311 311 312 312 311 312 313 313 313 312 306 303 304 307 309 308 307 306 304 297 296 301 312 313 310 309 312 315 314 314 314 314 314 314 313 310 310 309 315 314 314 313 310 307 306 307 306 303 304 311 302 302 302 302 306 302 302 306 309 316 304 309 306 307 311 311 314 311 312 314 316 319 320 318 318 319 319 319 319 319 319 321 325 325
311 311 311 311 311 311 311 311 312 313 313 313 312 310 308 307 308 307 305 305 301 297 301 297 302 306 309 306 310 312 314 314 314 313 312 313 313 313 312 309 307 309 309 308 313 312 309 307 306 303 306 304 310 307 307 306 306 304 304 307 312 311 307 313 309 303 303 305 308 315 304 304 310 314 319 322 322 320 319 319 319 318 319 320 320 321 322
311 311 311 311 311 311 311 311 311 312 313 313 312 311 311 308 308 308 309 307 304 297 297 298 298 303 309 306 311 313 313 314 313 313 313 313 313 312 310 308 307 306 310 308 303 306 305 304 302 307 309 311 308 304 309 310 307 304 305 304 310 306 308 309 305 303 305 310 313 316 315 313 314 316 317 323 325 320 318 319 321 321 320 320 322 322 322
311 311 311 311 311 311 311 311 312 312 313 312 311 310 310 311 312 311 311 313 310 305 303 302 305 302 297 303 311 310 313 313 313 313 313 312 312 311 309 308 307 307 310 311 309 308 305 305 311 307 306 310 307 303 305 300 300 298 302 307 312 315 317 313 313 313 315 318 317 320 314 314 316 317 319 324 325 322 320 321 321 321 322 322 321 322 321
311 311 311 311 311 311 311 311 312 312 313 311 309 307 305 309 313 311 312 317 316 312 302 299 294 298 307 307 306 309 310 313 313 313 312 310 310 309 309 308 308 312 311 309 309 305 308 308 309 310 313 316 307 307 303 300 300 300 308 312 315 315 318 319 319 315 312 319 320 323 323 322 322 320 319 322 325 322 321 322 323 323 323 324 322 322 323
311 311 311 311 311 311 311 311 312 313 312 309 307 301 300 299 307 316 314 315 315 310 305 304 298 303 301 307 307 306 310 313 312 312 312 310 309 309 310 311 310 311 306 307 308 306 310 304 307 308 313 315 312 305 301 300 298 300 308 312 313 314 317 317 318 320 321 320 321 323 323 324 322 317 318 320 323 323 325 327 331 331 325 323 323 323 323
311 311 311 311 311 311 312 312 313 313 310 307 303 303 305 307 312 315 314 314 313 309 304 298 299 298 299 304 309 312 312 313 313 313 310 309 307 309 310 310 309 311 309 304 307 308 305 308 308 308 306 313 314 306 304 301 299 301 307 311 314 315 319 320 319 321 322 323 322 320 321 323 325 320 318 324 324 325 325 328 331 333 334 325 324 324 324
310 310 310 310 311 311 312 312 313 312 309 311 313 313 313 312 312 313 313 311 309 307 308 302 297 300 298 301 308 311 316 312 309 310 307 310 308 308 306 312 312 312 323 310 303 301 309 308 308 304 306 313 307 305 303 300 302 306 310 313 314 316 317 320 320 321 321 323 323 317 316 319 323 327 326 326 326 326 327 329 328 326 324 323 324 324 324
311 310 310 310 311 311 312 312 313 312 312 308 304 307 312 313 313 314 314 313 309 310 308 302 298 297 298 307 302 309 317 308 306 306 302 310 313 307 305 308 309 306 310 304 307 307 308 310 305 305 310 308 309 305 300 303 306 308 310 314 316 316 317 316 316 317 319 321 322 321 322 323 326 325 323 323 324 324 326 327 327 324 322 323 323 324 324
311 310 311 311 311 312 312 312 309 308 305 307 308 313 316 315 313 314 314 311 303 302 303 304 302 297 298 300 299 303 316 310 305 307 303 306 314 307 311 306 305 302 307 314 308 305 306 306 309 305 300 307 304 299 300 303 305 307 311 313 315 316 314 314 315 316 318 320 320 318 319 320 323 321 322 323 325 324 322 324 325 324 322 322 324 324 325
311 311 311 312 312 312 310 311 308 307 305 305 308 318 318 317 313 314 314 315 310 303 301 302 301 297 298 295 296 304 317 306 310 312 312 313 307 314 314 308 300 303 313 308 303 307 303 311 307 297 302 301 299 301 306 313 312 312 311 313 315 313 313 313 314 317 318 320 320 322 322 322 323 322 322 323 324 324 323 323 323 322 322 321 322 323 323
311 311 312 312 310 309 306 309 312 309 308 312 315 319 318 316 316 317 313 310 313 313 303 299 294 295 298 300 305 310 312 300 308 307 309 307 306 313 308 306 301 308 307 305 305 303 305 315 304 299 299 297 303 311 314 316 316 314 311 313 316 317 317 316 316 315 315 316 317 318 320 321 322 320 320 322 322 323 323 323 322 320 322 322 322 323 324
311 312 308 307 307 303 304 308 310 314 319 317 318 314 310 310 304 307 308 304 309 310 305 303 297 300 304 301 297 311 311 306 310 307 308 312 306 305 308 305 304 306 299 300 303 309 307 305 302 298 305 311 312 316 319 319 320 320 319 318 319 319 319 319 318 315 312 311 311 313 315 314 316 317 321 321 322 322 322 323 325 324 324 323 323 324 325
310 306 307 307 305 303 303 305 316 320 316 315 315 307 304 306 304 301 302 305 307 301 306 302 299 303 301 300 302 314 309 307 304 307 304 312 306 301 306 299 305 305 292 297 301 312 300 298 301 300 301 306 310 313 318 320 320 320 321 322 323 322 320 320 320 317 316 314 315 316 316 314 314 315 319 320 319 321 323 323 323 325 323 323 323 323 323
306 303 304 305 305 305 311 314 317 314 312 306 308 304 299 305 298 293 305 299 297 304 304 299 305 304 305 302 303 305 314 308 303 303 305 307 313 303 305 304 304 301 293 294 298 312 300 295 298 298 300 304 307 313 315 318 317 319 319 320 322 323 323 322 323 323 322 322 323 323 324 323 321 318 319 319 320 320 321 322 322 323 323 322 324 321 322
304 302 302 300 303 303 306 308 310 309 307 303 304 304 302 295 302 304 302 298 297 300 307 304 306 304 308 308 306 302 314 318 314 313 309 304 311 309 303 298 307 298 296 295 304 307 302 299 299 296 300 304 307 313 315 315 317 318 319 319 321 322 323 322 323 324 323 321 321 322 323 324 323 321 321 321 322 321 323 322 321 322 325 324 324 323 324
303 302 303 305 305 306 307 307 307 304 305 305 296 291 295 298 303 301 303 295 299 304 304 306 303 304 306 310 308 308 310 317 316 313 305 301 309 304 300 302 304 296 292 301 309 305 300 295 294 297 304 309 312 314 314 315 316 316 317 318 320 321 322 322 322 323 325 325 324 325 325 324 323 322 321 322 324 323 322 322 324 325 327 323 320 320 321
310 309 308 304 307 305 307 297 304 303 289 289 291 287 294 291 298 297 300 304 307 307 307 313 308 311 313 317 312 313 310 316 311 309 307 303 311 307 301 299 298 290 299 310 304 300 296 294 295 300 308 310 315 315 315 316 316 315 316 317 318 319 320 321 322 322 324 325 325 325 324 325 325 326 326 324 323 322 323 324 325 326 324 319 321 323 323
308 308 304 305 302 304 303 287 304 299 290 291 290 288 295 295 299 301 300 302 306 305 309 305 307 306 303 313 309 308 312 314 314 312 307 309 307 301 299 293 296 302 310 301 300 296 297 300 302 305 310 313 317 315 315 316 316 316 316 318 319 320 320 322 322 322 323 323 324 324 325 324 324 326 327 325 324 322 321 321 325 329 325 321 321 321 322
302 302 300 297 292 296 294 287 302 292 284 289 294 296 299 295 298 300 299 309 310 305 311 311 309 307 306 310 311 311 309 304 312 305 302 305 301 300 297 296 303 305 299 295 298 299 299 299 304 307 311 312 314 316 316 316 317 317 318 319 319 321 321 320 320 321 320 320 321 322 322 322 322 321 323 324 324 324 323 323 324 327 325 324 321 320 321
301 294 293 289 286 288 289 286 288 286 295 298 299 300 298 301 301 301 311 315 309 308 307 308 308 309 306 310 305 303 307 307 303 304 306 304 297 295 302 308 306 299 298 297 296 294 298 302 307 308 312 313 315 316 316 316 318 318 319 317 317 320 320 321 321 319 320 320 320 320 320 320 321 321 321 322 323 324 324 324 324 326 325 323 323 323 323
301 305 299 294 289 288 296 287 290 294 298 300 301 301 301 302 305 306 312 313 309 310 310 310 310 309 305 305 307 306 307 306 302 304 306 300 298 299 306 301 295 298 294 293 293 296 301 305 308 311 312 314 315 316 316 315 318 318 318 318 319 320 320 320 321 321 320 321 321 320 319 320 320 320 320 321 322 322 324 324 324 326 324 322 322 321 320
292 300 302 289 286 289 290 297 305 303 304 304 303 303 305 306 305 303 309 311 311 309 307 308 306 307 305 311 309 301 302 305 300 300 305 303 304 301 294 298 298 301 300 297 297 302 303 308 310 313 314 315 314 315 315 314 315 317 317 316 317 317 318 318 319 320 321 321 320 318 318 318 321 320 319 320 320 321 323 323 323 324 325 323 322 319 320
304 298 290 288 294 296 297 301 300 298 301 304 306 306 306 305 305 306 309 311 309 308 310 308 308 307 301 306 303 301 299 304 295 293 304 301 297 292 293 293 295 294 301 304 301 304 306 309 310 314 316 316 315 316 315 316 317 318 318 318 317 317 317 317 318 320 320 319 319 318 318 319 319 320 319 319 319 320 321 321 322 322 323 324 322 321 320
296 294 298 295 293 295 300 302 299 296 299 301 305 306 308 307 308 308 311 309 309 307 308 311 311 304 303 305 294 297 299 302 302 297 297 296 298 299 296 294 296 296 298 303 305 307 309 311 311 312 314 315 317 315 315 317 319 317 319 319 320 319 317 318 318 320 320 320 320 320 320 319 318 319 319 318 318 319 320 321 323 322 322 323 323 321 321
303 300 295 302 295 294 296 292 291 292 295 297 299 302 304 306 308 308 312 310 308 306 304 302 301 301 290 290 289 287 296 304 300 299 297 297 300 299 296 295 298 301 303 308 311 312 312 312 313 314 313 314 314 315 316 316 316 317 319 320 319 318 319 320 319 319 319 320 323 329 320 319 319 320 320 319 320 320 319 320 321 320 321 322 323 322 322
291 289 292 297 300 300 299 299 299 298 298 299 300 303 305 303 306 307 312 309 306 302 300 302 301 294 290 292 299 301 303 300 297 298 295 298 304 299 298 300 302 305 307 309 310 312 315 315 315 316 314 315 319 317 317 318 319 317 317 317 318 317 317 317 318 319 319 320 319 318 319 319 320 320 320 319 319 317 316 316 319 321 321 321 322 322 323
Wind_Speed
15 16 17 17 18 19 19 21 21 22 23 10 8 5 4 4 5 13 15 13 1 1 2 2 2 2 3 2 8 9 9 8 9 10 10 7 6 4 4 1 3 3 1 1 1 0 2 3 2 2 3 3 4 9 11 8 9 10 3 7 3 4 3 3 2 6 6 3 3 2 3 6 3 2 1 3 2 3 4 3 4 3 4 3 2 2 3
15 16 16 16 17 18 19 19 20 19 18 8 7 2 2 3 5 8 3 1 4 3 5 3 3 4 6 8 10 8 8 7 8 8 9 3 3 1 1 2 0 3 1 0 1 1 1 2 2 3 1 4 8 8 9 4 4 6 4 5 1 3 2 6 1 1 4 8 4 4 6 5 1 1 2 3 2 3 1 4 2 4 2 3 7 2 3
15 15 16 16 17 18 18 18 19 19 16 11 3 3 3 5 4 6 8 3 4 5 3 3 4 4 6 7 9 8 5 7 12 12 12 8 6 1 1 1 0 3 1 0 0 2 6 2 2 2 1 2 5 8 12 9 4 4 8 9 7 5 1 4 3 5 3 2 4 2 0 1 1 0 1 2 3 5 1 2 1 3 1 5 4 2 6
14 15 15 15 16 17 18 18 20 20 17 13 2 2 2 4 3 5 3 5 2 2 6 4 4 4 5 9 8 8 8 7 8 10 13 13 5 3 2 1 2 3 4 5 1 2 2 3 2 2 1 2 2 4 9 11 5 6 14 13 6 3 1 3 4 7 7 4 4 5 2 1 1 0 2 2 3 4 6 7 5 4 2 2 4 8 4
15 15 16 16 16 17 17 18 20 20 19 13 1 2 2 1 0 3 5 6 3 5 3 6 6 5 7 3 4 9 8 7 7 7 2 3 7 2 1 0 2 2 4 2 2 1 4 2 1 1 3 2 2 4 7 8 11 8 2 6 7 4 3 4 7 4 5 8 5 4 4 2 1 1 3 3 3 3 6 5 5 7 9 1 3 6 10
16 17 17 17 16 17 18 18 20 21 21 15 2 2 1 1 2 3 2 2 3 7 6 9 11 11 8 4 5 7 9 8 3 8 3 7 2 2 4 1 3 4 6 2 2 2 4 4 3 4 4 4 3 2 5 4 7 9 5 4 2 6 6 4 3 2 3 3 3 4 4 4 3 2 1 4 4 2 2 2 5 7 5 7 3 5 7
16 17 18 18 16 17 18 18 19 22 24 12 2 2 3 2 2 2 8 2 3 3 11 13 9 11 7 4 4 6 8 8 2 1 6 3 4 1 2 3 7 9 6 4 2 1 1 3 4 3 5 5 6 5 4 3 6 5 4 5 1 2 1 5 4 2 3 3 2 4 4 1 3 2 3 4 6 7 7 2 3 5 2 5 11 7 5
16 17 17 17 17 18 18 18 19 21 24 8 1 3 2 3 3 4 5 3 5 7 6 7 8 7 6 3 5 4 7 8 9 5 2 3 2 0 3 8 7 6 3 1 1 1 4 3 2 2 3 4 6 3 2 4 6 5 3 2 7 4 3 2 2 2 1 3 2 0 4 5 4 4 5 4 3 5 2 4 7 10 9 8 9 8 3
16 16 16 17 17 17 17 17 17 19 18 6 6 3 5 3 3 3 5 5 4 3 4 5 6 6 4 2 6 8 11 12 11 8 8 5 3 5 7 9 9 6 6 7 9 6 7 4 2 1 2 1 1 2 2 1 4 5 3 3 2 3 3 1 2 1 1 1 1 1 2 7 7 6 5 3 0 1 3 8 8 8 6 6 9 7 4
15 16 16 17 16 15 16 15 15 16 13 5 4 3 5 4 2 4 2 2 2 4 4 6 4 3 2 8 10 7 11 11 11 8 4 7 3 3 5 8 4 4 7 6 2 4 5 4 2 2 1 2 1 3 3 2 0 2 1 0 2 1 1 2 1 1 2 5 1 1 3 4 2 5 6 4 1 4 3 1 3 6 12 11 8 9 9
15 15 16 16 16 15 15 14 14 13 8 7 5 5 6 7 7 6 2 2 3 2 5 5 4 4 12 12 12 11 11 13 10 7 4 7 7 5 4 5 6 2 6 3 2 2 4 5 3 2 2 1 1 3 4 6 3 1 0 1 1 3 4 1 1 2 2 5 1 0 0 1 3 4 3 3 3 5 5 2 2 4 3 4 8 7 6
14 15 16 16 15 14 13 13 13 12 7 3 2 4 5 6 6 3 2 1 4 4 3 5 5 8 12 13 10 11 13 14 11 8 7 5 7 5 5 6 4 3 4 4 5 2 2 1 3 3 2 1 1 2 4 3 5 2 2 2 1 2 3 2 0 1 3 1 3 2 0 6 7 4 2 4 11 9 7 3 1 3 2 7 5 10 13
14 14 15 15 15 14 13 13 12 11 8 4 3 4 4 6 4 4 4 2 4 3 5 6 10 10 11 13 13 12 13 11 11 11 9 4 5 5 5 5 7 8 11 5 5 2 5 1 1 1 3 4 1 2 1 2 0 4 3 1 2 1 2 1 3 1 1 1 2 1 3 4 2 2 3 4 5 3 4 1 1 1 5 9 9 4 6
14 14 14 14 14 14 14 14 13 12 11 6 4 3 4 5 4 4 3 3 5 2 5 8 6 9 13 13 13 14 12 11 12 8 8 7 7 9 9 7 7 9 8 4 2 2 4 5 3 6 7 6 4 4 2 3 4 2 4 3 2 4 2 2 3 0 2 3 3 6 4 4 3 2 1 1 2 0 2 2 1 5 1 9 9 9 10
13 14 14 14 14 13 13 14 14 15 12 8 4 4 4 5 4 4 4 3 5 5 3 4 5 9 10 10 12 11 8 10 11 10 10 5 3 6 5 11 11 12 11 3 3 3 3 3 3 3 4 3 1 2 3 2 1 5 6 4 3 5 2 3 2 2 2 3 1 2 2 1 4 3 5 2 2 6 6 1 2 5 4 4 15 12 10
13 13 14 14 14 13 14 14 15 15 13 9 4 4 5 4 5 5 4 3 3 5 2 2 8 8 6 6 9 8 7 8 7 8 8 4 7 14 11 13 12 10 7 2 1 2 2 3 1 2 0 1 2 1 2 3 3 3 3 7 5 4 5 8 6 2 0 1 1 2 2 4 6 2 5 5 0 10 3 5 2 4 2 5 13 10 10
13 13 13 13 13 13 13 14 14 14 13 8 5 5 5 3 3 4 4 3 3 7 6 11 8 6 3 4 6 3 6 6 8 6 6 9 11 9 12 15 10 6 11 1 1 2 3 3 2 2 2 1 0 1 3 1 2 5 10 4 11 7 5 6 3 3 4 3 1 2 2 0 2 8 6 3 7 6 7 3 1 4 2 6 13 14 13
13 13 14 14 14 14 13 13 14 14 13 9 4 4 5 5 3 2 3 4 3 6 5 4 5 4 2 3 5 6 5 5 5 5 3 6 3 7 11 9 9 6 8 3 2 2 2 2 1 1 1 3 1 1 2 1 1 1 3 5 2 5 1 5 7 6 5 5 3 0 2 3 4 4 5 1 2 6 4 5 5 2 3 10 11 12 11
13 13 14 14 14 14 14 14 15 16 14 9 5 5 4 2 5 4 4 4 4 6 5 12 7 6 6 7 7 5 5 6 6 4 6 6 2 9 13 7 4 6 8 2 1 1 3 1 1 2 1 4 3 0 2 2 1 1 1 5 5 6 1 1 3 4 3 3 2 6 4 7 8 0 0 0 3 3 5 5 4 6 4 7 12 11 8
12 13 13 14 15 14 14 15 16 15 14 8 3 3 8 8 6 3 3 5 3 8 9 11 8 12 5 6 4 4 6 5 2 2 2 3 6 13 4 2 5 5 6 4 5 2 3 1 1 0 1 1 0 1 1 1 1 0 2 1 2 1 1 1 0 0 2 1 1 2 4 3 3 6 1 2 2 4 4 1 1 5 10 10 8 11 8
13 13 13 14 14 14 14 15 15 14 14 10 4 4 7 2 3 5 4 6 6 9 8 3 3 5 5 8 9 9 8 9 6 4 4 5 7 5 3 0 5 3 3 3 3 3 2 3 3 1 1 1 1 1 1 1 2 2 0 0 1 1 2 1 1 1 2 2 3 4 5 4 5 5 6 3 4 8 7 9 5 4 8 8 7 4 7
13 13 13 14 14 14 14 15 15 14 14 12 9 2 5 5 6 5 6 5 5 6 6 10 10 13 15 14 14 13 14 16 14 10 8 6 2 3 2 2 3 2 1 2 3 3 4 2 1 2 3 3 3 1 1 1 1 4 2 3 3 5 1 2 1 0 2 1 2 6 5 7 4 1 4 4 4 4 5 8 9 8 4 4 9 8 6
12 13 14 14 14 14 14 15 15 14 13 12 7 1 5 8 7 5 6 5 3 6 8 10 9 10 10 14 16 15 15 13 12 11 10 6 4 2 3 2 3 2 1 1 1 0 2 1 2 1 1 0 0 2 2 1 1 2 2 2 4 2 2 2 2 1 2 4 4 5 3 3 6 3 3 8 5 4 5 11 8 4 7 8 10 9 8
12 14 14 14 14 14 14 14 15 14 11 10 6 4 5 5 7 6 4 3 2 6 8 6 3 4 3 7 7 4 9 11 12 13 8 6 5 3 2 2 1 2 1 2 1 2 2 1 4 0 0 2 1 1 0 3 1 0 1 3 3 3 3 3 2 3 6 3 8 7 5 3 5 5 5 5 5 5 4 7 7 6 6 6 9 11 10
13 14 14 14 14 14 14 15 16 15 10 9 7 4 5 6 4 2 3 4 3 4 7 7 8 11 11 9 10 9 6 4 5 9 11 11 11 8 5 3 0 2 4 5 2 3 1 2 3 1 1 4 3 3 1 2 3 0 3 3 2 5 4 2 1 3 2 2 4 7 3 2 3 1 5 6 6 5 5 7 6 7 5 8 9 9 8
14 13 13 14 13 13 14 15 16 16 13 10 9 4 3 5 4 5 5 5 5 5 6 7 7 3 7 13 12 9 12 13 12 11 9 11 14 14 11 5 5 1 1 2 4 3 2 1 1 1 1 3 1 1 1 4 2 1 4 3 5 3 2 1 2 0 4 3 2 7 4 4 4 3 4 2 4 8 5 6 8 8 8 5 5 6 8
14 14 14 14 14 14 15 15 16 15 14 10 6 5 6 6 4 4 4 4 5 3 3 6 7 12 8 15 15 11 9 8 7 7 8 8 9 10 10 6 5 2 2 3 2 1 1 2 1 2 1 3 2 2 2 3 1 0 1 3 0 2 0 1 3 2 2 1 1 2 3 2 6 5 1 1 1 7 7 6 8 7 7 7 9 5 3
14 14 14 14 13 14 14 15 15 16 13 12 8 7 7 7 5 6 5 5 3 4 6 8 9 13 14 13 7 8 12 11 8 8 7 9 9 10 8 7 5 3 2 1 3 1 0 1 3 3 1 1 0 3 2 0 1 1 0 2 1 2 4 3 4 4 4 5 6 3 2 2 4 5 5 0 0 5 7 8 7 5 6 9 12 9 6
14 14 14 12 11 13 14 14 15 14 14 11 7 8 7 8 7 6 7 5 5 5 6 9 10 7 5 9 15 11 8 5 7 7 6 8 11 10 8 7 6 5 3 2 2 2 1 3 2 2 2 2 1 2 2 0 1 2 3 4 2 1 3 3 4 4 2 2 3 0 1 1 3 4 3 1 1 6 5 4 5 6 7 7 8 10 11
14 13 12 11 12 14 14 14 14 14 13 7 6 2 3 2 1 4 6 3 2 2 4 5 7 4 5 6 9 8 9 8 7 7 5 3 3 5 7 6 4 4 2 3 2 2 2 2 2 2 2 2 2 2 1 1 1 4 3 3 3 2 0 2 3 4 2 3 2 1 1 2 1 2 2 1 3 6 7 6 7 6 5 8 9 5 6
15 13 12 12 13 14 14 14 12 12 9 5 4 2 2 1 0 1 2 2 5 3 3 2 7 7 7 4 5 9 11 8 5 4 4 4 4 4 3 4 2 4 3 1 0 3 0 2 1 3 2 0 2 2 2 0 1 2 3 4 4 4 2 2 1 2 2 0 1 1 2 3 4 2 4 6 1 5 4 3 4 7 8 8 8 8 6
14 13 12 14 15 15 15 14 12 10 4 5 4 2 1 1 1 4 7 5 6 4 4 4 5 2 4 5 3 5 11 12 7 3 2 3 4 5 2 5 3 4 4 4 2 0 2 3 2 3 3 4 0 1 1 2 2 3 2 5 7 4 1 0 2 2 2 0 2 4 4 5 6 5 2 6 3 0 6 6 6 6 8 7 4 4 6
14 14 14 16 16 16 16 15 14 8 5 7 11 16 19 23 23 19 11 4 2 3 2 3 4 4 3 5 8 6 5 4 1 2 3 2 3 3 2 2 3 2 3 2 1 3 3 3 2 2 6 1 1 1 1 3 4 4 5 5 4 2 2 1 2 2 3 3 3 3 0 1 3 4 3 3 0 2 5 5 4 7 8 9 7 4 3
13 14 16 17 17 17 17 17 16 13 10 6 5 4 4 8 8 9 4 3 2 2 1 2 3 3 6 5 4 5 6 3 4 1 2 1 2 4 3 3 2 3 1 5 3 1 2 1 2 3 2 2 1 1 2 4 4 6 6 5 4 3 3 4 2 3 2 2 2 3 1 1 0 1 5 4 0 2 0 3 5 6 5 6 5 5 5
14 16 17 18 17 17 19 16 5 2 3 3 4 2 1 5 4 5 6 3 1 1 2 3 2 3 4 3 2 6 4 4 4 4 1 3 1 3 2 2 2 1 1 0 0 2 2 4 3 1 4 1 1 1 3 4 5 5 4 4 2 3 3 4 1 0 1 2 3 4 3 3 4 4 2 4 5 4 2 0 2 6 5 4 5 4 4
17 18 18 18 19 13 6 2 3 2 2 3 2 1 3 2 0 2 3 1 1 1 2 2 1 3 2 4 5 4 5 4 3 2 2 1 1 1 1 3 2 5 2 3 2 2 3 3 2 3 2 1 3 1 2 5 7 3 2 1 1 3 3 5 3 0 2 3 5 5 6 4 5 2 1 1 3 4 3 0 0 3 6 6 5 4 3
19 18 19 16 6 0 1 2 2 3 2 2 7 9 7 3 1 1 1 1 1 1 2 1 2 5 2 3 2 4 4 4 5 4 5 5 3 2 1 1 2 1 1 1 2 1 6 1 1 1 0 2 2 3 2 3 3 4 3 1 1 2 4 4 4 3 2 4 6 4 3 2 2 3 2 1 1 2 2 1 1 2 4 5 4 4 5
19 15 3 2 1 1 0 0 0 3 4 7 6 3 0 1 1 2 2 2 2 3 2 2 5 3 2 2 5 4 2 3 3 2 3 1 2 3 1 1 2 1 0 2 3 3 0 0 2 3 1 2 2 1 3 3 4 4 4 4 3 2 3 2 3 5 2 1 2 1 1 2 2 2 0 1 1 0 0 2 3 1 2 3 4 4 4
10 2 0 1 0 2 0 2 4 7 5 3 1 1 1 1 1 1 2 2 1 2 3 4 5 3 3 3 6 3 2 2 3 2 2 3 1 4 2 1 2 2 1 1 4 3 1 1 0 2 2 2 2 3 3 2 3 5 5 5 5 4 2 3 3 4 4 2 2 2 2 2 3 3 2 2 1 1 3 3 3 2 1 2 2 1 3
2 3 3 3 1 2 3 4 7 6 2 1 1 0 1 1 1 1 1 1 1 1 2 4 4 4 7 8 5 3 1 3 1 1 0 4 0 1 2 0 1 0 2 1 1 3 1 0 1 2 2 2 2 2 3 2 3 3 3 5 6 5 4 2 3 2 3 1 1 1 2 3 2 2 3 3 1 3 3 4 3 1 1 1 1 2 6
2 2 3 2 3 3 4 7 5 1 1 1 0 1 0 1 2 1 0 2 1 1 1 3 2 2 4 5 4 5 4 1 1 1 1 2 2 1 1 1 1 1 1 1 1 1 0 0 0 1 2 1 2 1 1 3 3 3 4 5 5 4 4 3 3 3 3 4 4 3 1 1 2 1 1 1 1 2 1 1 2 3 1 0 6 10 9
2 2 3 4 6 6 5 2 1 1 0 0 0 2 1 2 1 0 1 1 1 2 3 2 2 2 3 4 4 4 2 1 3 2 2 1 2 2 2 1 0 1 1 1 1 1 1 0 0 0 2 1 2 2 2 3 3 4 5 5 5 5 5 4 4 4 4 4 3 3 3 4 2 0 1 1 1 1 3 4 5 5 12 14 13 11 11
13 10 5 3 3 2 1 1 1 0 0 1 1 2 1 1 1 1 1 1 2 2 1 1 3 3 6 2 1 2 3 2 1 1 1 1 0 0 1 0 1 0 1 0 1 0 1 0 0 1 2 1 0 0 2 1 2 3 3 3 3 3 3 4 3 3 4 5 5 4 4 5 5 4 3 3 2 3 2 3 4 6 11 10 8 7 7
6 2 1 2 2 1 1 1 1 1 2 0 0 0 1 2 2 2 2 2 1 2 1 2 3 2 5 3 2 2 1 0 1 1 1 2 0 1 0 0 1 1 0 1 1 2 1 1 1 1 3 1 1 0 1 2 3 3 4 4 4 3 4 4 4 5 6 5 5 4 5 5 4 5 4 4 3 3 3 3 4 7 10 9 7 5 4
2 1 1 0 1 2 1 1 0 2 1 2 1 1 1 2 3 1 3 1 2 3 4 4 5 3 6 4 1 2 1 1 1 1 1 0 1 1 0 1 1 1 1 0 0 0 0 1 1 1 0 1 0 1 1 2 3 3 3 3 3 4 4 4 4 3 3 4 3 4 4 4 4 4 3 3 2 2 3 3 3 6 7 7 5 3 3
0 0 0 2 3 2 1 1 0 1 1 2 1 2 3 3 3 4 2 1 3 5 5 5 4 3 6 3 1 1 1 1 1 1 1 1 1 0 3 1 1 1 1 1 0 1 1 1 1 3 3 0 2 2 2 3 3 3 4 3 3 4 4 3 3 3 2 2 2 3 3 3 3 4 3 3 2 3 4 3 4 7 6 6 4 4 4
2 1 0 0 0 3 0 0 1 2 2 3 4 5 4 4 4 2 1 2 4 5 5 3 4 3 3 3 2 2 0 1 0 1 1 2 1 1 0 2 1 1 0 0 1 3 2 1 1 3 1 1 2 2 2 3 3 3 3 3 4 4 4 3 3 2 1 1 2 3 3 2 2 2 3 4 3 3 3 2 3 4 6 6 4 3 3
0 1 1 0 2 1 1 2 1 4 4 4 3 4 4 3 3 4 4 3 4 4 4 4 5 4 2 1 1 2 1 1 1 1 0 0 1 1 1 1 0 0 0 1 2 1 1 1 0 0 1 2 2 2 3 3 3 3 3 3 3 3 3 3 4 2 1 1 2 4 4 4 3 4 4 3 3 4 4 4 3 4 6 5 5 3 3
2 0 0 1 1 1 2 3 5 5 5 5 3 4 3 4 3 4 6 4 5 6 5 2 2 0 3 1 1 1 1 1 1 1 1 1 1 1 0 1 0 1 1 0 1 1 1 1 1 2 0 1 2 2 2 1 1 2 1 1 1 2 2 4 4 2 1 2 3 4 4 4 4 4 4 4 5 5 5 4 4 3 3 6 5 5 3
0 1 1 1 3 4 5 4 2 3 5 7 5 5 4 2 3 4 3 2 3 4 4 1 1 0 3 0 2 1 0 1 1 1 2 0 0 0 2 1 1 2 1 0 0 1 1 1 0 1 1 2 1 1 2 3 3 3 2 2 0 0 2 3 3 3 4 4 4 4 4 4 4 4 4 4 3 3 5 6 5 5 4 1 5 4 5
1 1 2 2 4 4 3 3 3 6 8 7 6 6 4 3 3 4 2 2 4 4 2 1 1 1 2 2 1 1 0 0 1 0 1 1 1 0 1 2 2 2 3 2 2 4 2 2 1 1 1 1 1 2 2 2 3 3 1 0 1 0 1 2 2 4 5 4 4 5 4 2 2 2 2 3 4 4 4 5 4 4 4 3 2 2 2
0 1 2 3 5 6 6 6 6 8 9 10 6 3 3 5 3 5 3 2 3 3 2 1 1 1 2 0 0 1 1 1 1 1 2 1 0 0 1 2 2 2 2 2 2 3 2 2 2 2 1 1 1 3 3 3 2 2 4 4 4 5 5 4 4 3 3 3 3 3 2 3 3 2 2 4 4 4 5 5 5 4 4 3 3 3 1
Wind_Direction
342 341 340 343 346 346 346 347 348 352 355 11 351 312 352 15 244 267 281 283 264 169 298 283 251 233 230 242 261 257 266 268 277 286 282 287 242 237 216 214 300 236 184 106 91 163 250 228 226 241 338 272 250 265 228 183 185 149 195 173 240 115 116 135 276 307 296 317 331 68 117 120 68 11 38 166 181 170 164 170 188 118 320 50 6 61 249
344 341 342 344 346 345 345 345 348 351 10 358 313 352 357 274 280 314 310 240 183 150 224 252 236 245 261 245 258 239 248 258 271 257 262 235 285 227 233 325 203 269 222 120 242 159 350 234 39 319 56 313 309 337 33 282 204 151 209 143 261 172 296 129 116 15 341 343 8 1 337 47 89 167 256 157 135 106 92 100 68 81 267 164 114 195 266
342 342 343 345 344 344 343 344 346 348 355 1 338 356 295 275 246 233 289 313 146 193 186 203 275 285 298 306 294 292 263 229 241 248 258 255 238 285 285 193 189 297 323 309 236 222 174 273 265 184 206 254 314 326 355 2 264 182 162 125 120 94 173 99 133 163 165 230 184 235 320 186 235 115 359 345 137 173 71 114 6 96 266 101 120 216 250
343 343 344 343 343 342 343 345 344 342 345 356 352 313 342 3 1 297 312 354 331 307 349 7 355 328 335 326 293 279 274 278 266 251 256 237 248 222 210 290 38 308 337 333 9 319 263 203 279 350 310 297 304 344 2 345 327 190 143 139 109 136 136 100 148 154 178 199 209 242 120 65 68 267 352 296 326 60 95 119 99 149 207 110 204 170 172
343 343 344 346 345 344 345 347 342 338 338 352 60 283 176 335 109 329 329 322 10 2 345 3 5 332 325 295 306 306 305 302 309 271 262 242 217 204 192 39 357 334 3 326 335 291 306 324 341 258 281 227 240 311 50 330 12 8 132 145 94 82 83 172 137 173 197 191 187 209 149 147 177 88 279 305 294 127 141 142 181 177 95 306 253 182 145
344 345 347 349 350 348 349 347 344 338 335 345 156 351 212 33 287 24 21 318 294 3 335 345 317 309 320 273 278 281 299 308 312 321 331 345 294 221 353 308 231 215 225 254 287 306 305 321 304 334 325 338 346 9 341 59 359 14 360 358 103 143 143 224 120 244 171 216 249 189 154 171 164 186 251 270 280 164 166 231 188 134 148 194 236 151 168
345 345 348 351 352 351 349 348 347 343 337 344 134 23 295 252 329 316 18 342 337 303 281 297 307 309 314 284 274 292 305 305 306 263 310 356 353 339 283 245 245 242 232 169 219 176 259 309 11 32 319 25 4 4 343 335 29 28 21 352 4 87 125 196 142 171 123 158 219 288 184 183 152 184 217 213 267 270 243 205 173 151 140 160 143 153 172
346 347 349 351 352 351 350 349 352 348 341 338 62 39 1 27 3 332 349 286 286 280 294 313 316 308 315 304 285 294 298 310 338 321 307 338 310 232 290 317 301 264 267 229 79 19 74 111 74 296 29 7 35 356 80 298 320 27 19 4 358 63 287 208 111 107 265 234 241 141 227 174 221 236 224 242 257 292 232 109 108 101 80 102 115 119 179
346 347 349 352 351 352 349 351 357 354 349 29 22 358 47 315 292 318 313 318 275 274 314 315 314 313 304 255 308 328 346 339 346 317 306 305 330 25 356 322 325 309 115 108 122 147 140 132 127 227 117 87 205 111 285 344 313 349 5 36 340 50 283 355 75 93 304 278 124 340 266 215 198 217 250 260 135 77 171 133 170 127 157 150 127 133 179
347 348 349 348 350 350 349 352 360 1 353 37 340 354 344 306 291 315 246 267 300 332 291 287 321 281 312 347 340 328 326 340 352 344 312 19 29 40 5 337 10 1 47 41 64 176 146 145 165 114 227 203 242 179 215 201 56 305 34 273 66 110 71 352 49 179 264 247 153 161 86 51 8 265 239 203 196 136 154 116 70 141 145 139 152 205 194
347 347 346 347 349 350 349 352 0 4 8 31 6 334 334 2 342 341 311 281 295 309 335 290 280 316 345 348 337 334 333 341 354 10 300 323 327 342 34 4 27 280 50 352 269 219 142 143 154 132 107 105 315 285 289 286 254 162 46 51 9 35 35 344 186 140 251 296 344 305 136 251 237 234 183 150 122 143 117 142 204 208 121 205 180 175 130
346 344 344 347 350 350 349 354 360 3 19 6 315 303 315 334 326 260 296 328 281 328 330 289 341 322 330 335 328 329 332 333 334 330 304 290 291 322 17 6 52 18 322 297 306 322 218 55 84 61 83 354 280 317 319 268 279 269 137 121 83 52 32 321 217 122 239 310 52 55 185 231 239 266 168 137 133 131 125 161 193 168 118 77 72 102 136
343 342 345 347 349 350 348 353 354 358 2 356 349 330 314 321 299 296 297 284 266 342 325 303 322 314 338 335 335 327 325 319 330 327 329 339 317 355 14 11 12 324 326 322 300 5 59 39 345 14 324 332 342 100 359 336 317 339 353 90 110 63 39 291 331 130 48 67 57 82 245 235 247 37 121 132 93 112 100 57 313 306 162 146 128 110 139
340 341 344 347 347 346 344 347 348 352 353 353 337 302 296 309 320 311 317 313 283 302 319 315 319 349 343 333 324 322 330 344 331 335 346 336 316 4 7 9 316 300 320 323 38 60 34 24 27 12 339 354 360 0 260 236 213 208 278 298 126 134 99 68 307 254 191 195 138 208 283 320 350 66 15 106 133 264 147 168 295 323 325 124 127 134 139
338 340 344 344 343 340 342 343 342 347 348 347 307 301 301 316 316 315 312 289 277 285 259 250 358 338 331 324 330 333 340 338 352 333 314 303 322 360 350 334 330 336 322 3 354 34 121 93 32 31 329 42 20 273 318 336 250 177 184 224 215 140 182 207 113 288 125 114 38 357 33 218 279 245 284 313 201 133 167 121 314 298 358 118 131 143 143
337 341 342 341 340 339 340 341 340 343 349 347 314 302 295 285 287 264 273 294 312 313 239 112 356 321 323 305 315 331 343 329 336 308 314 337 348 349 349 346 337 333 336 44 116 90 51 88 163 82 183 271 256 330 307 324 338 321 190 194 202 173 139 157 170 215 111 351 159 210 152 241 217 248 246 264 302 126 120 70 3 274 34 136 126 131 136
336 338 339 338 338 337 339 339 338 341 342 350 334 327 305 341 327 325 326 298 248 246 307 325 329 331 292 306 349 3 357 333 338 344 335 346 344 341 329 339 326 11 347 36 9 67 36 54 94 132 274 235 340 221 268 30 14 342 326 246 201 184 128 138 137 141 158 146 144 260 198 177 253 242 273 271 114 94 64 84 256 269 45 136 134 140 145
334 337 338 338 338 337 337 336 335 338 342 343 332 316 295 298 270 283 257 260 281 282 253 252 16 356 343 2 302 296 305 320 322 287 277 302 336 4 332 328 334 346 357 49 353 73 109 117 132 128 242 256 198 241 255 236 55 274 298 278 229 171 157 154 185 171 199 192 245 291 296 258 234 224 255 11 67 74 81 178 233 248 157 141 136 141 147
333 335 336 338 339 337 336 335 332 337 342 347 336 297 249 284 325 319 282 281 253 252 298 332 320 273 292 304 280 296 317 324 299 332 326 347 352 320 288 271 16 352 351 332 15 82 128 211 141 122 139 303 28 207 284 50 262 254 330 360 4 360 42 327 137 181 181 163 179 216 226 230 189 252 177 88 80 182 206 234 199 132 153 146 136 135 148
328 331 335 339 339 336 334 331 334 339 340 349 22 300 287 298 287 252 263 296 286 276 286 274 272 276 294 297 314 318 334 317 276 342 341 297 314 327 353 8 341 7 336 17 42 314 72 8 228 157 35 356 294 192 36 292 305 30 301 250 102 302 86 327 109 277 60 85 202 315 265 278 200 131 6 21 109 230 200 170 4 144 131 132 136 138 160
327 331 337 338 336 334 333 333 339 341 343 350 8 323 317 275 317 328 302 271 276 293 288 238 258 287 291 275 272 275 280 263 284 320 288 288 305 338 54 271 308 338 345 6 19 353 26 351 327 34 215 138 278 50 201 289 322 292 217 25 80 245 78 319 321 176 121 132 209 209 209 247 286 156 177 236 187 173 151 131 93 102 118 121 120 122 148
328 334 337 337 335 332 329 334 340 342 345 345 343 306 273 296 322 313 313 302 271 255 268 299 298 283 277 271 263 250 246 250 248 244 266 289 298 303 233 275 292 285 309 353 21 357 14 312 342 31 3 317 16 125 176 62 17 290 334 60 31 330 83 190 137 271 114 187 219 259 282 249 263 124 134 120 72 87 165 122 130 131 126 140 124 143 152
330 333 335 333 331 329 329 335 338 341 345 346 343 280 300 310 310 324 329 305 274 266 269 271 267 270 267 265 254 247 246 236 237 239 231 241 288 228 239 274 303 289 21 60 113 182 253 24 269 179 8 307 211 309 343 114 183 336 19 298 167 253 240 264 80 319 281 252 229 268 317 29 41 0 95 117 94 100 151 121 116 136 151 150 140 153 146
327 330 330 331 328 327 328 333 336 339 346 342 336 306 296 282 295 319 314 255 252 298 284 239 263 270 246 278 302 277 239 230 225 233 224 212 254 282 270 246 232 342 18 285 201 348 290 234 244 121 118 254 83 64 48 336 356 188 34 333 347 282 333 54 84 308 62 307 319 1 356 7 54 67 21 55 108 133 121 96 113 142 137 129 132 142 146
324 327 328 328 326 326 328 330 334 336 338 333 326 284 285 282 266 253 310 321 313 317 303 310 268 255 273 296 307 290 286 307 271 232 221 218 224 235 225 233 123 6 311 317 4 33 30 351 329 15 343 265 115 287 217 101 307 103 62 281 358 326 344 29 78 73 87 202 290 309 310 341 334 6 96 91 88 92 100 120 129 130 134 136 148 134 133
324 325 326 327 328 328 327 327 329 331 331 323 315 293 281 272 301 314 288 261 253 261 287 293 291 317 344 324 305 292 296 290 279 271 233 217 216 224 237 260 292 25 15 333 4 346 285 276 269 244 173 290 88 167 237 197 190 140 130 219 196 184 349 72 326 122 260 308 307 340 354 28 9 9 74 91 117 104 78 83 98 106 107 103 110 141 149
323 324 325 328 327 325 324 323 324 325 325 316 303 274 262 262 248 261 271 307 323 275 233 264 296 305 330 308 289 296 279 274 269 260 263 256 235 216 221 231 235 276 276 310 300 217 212 229 182 262 202 250 162 205 184 312 192 265 163 273 280 70 277 269 31 12 351 197 266 348 63 315 317 333 298 192 169 104 105 90 79 89 98 104 96 57 69
321 323 326 328 328 324 322 321 321 322 322 319 307 280 255 251 225 212 233 241 253 281 300 292 298 295 306 273 270 286 293 288 277 276 271 259 236 217 209 215 211 211 184 187 318 331 227 304 255 233 230 290 40 301 321 184 86 32 324 260 176 139 210 129 156 168 230 259 265 221 172 211 236 261 288 263 178 98 98 107 112 110 121 121 114 108 89
319 321 323 324 322 321 320 320 319 322 323 322 305 288 269 240 231 209 227 235 241 262 274 279 275 277 284 310 314 307 300 301 293 279 276 259 225 209 204 192 188 183 189 179 202 232 239 246 224 235 249 217 138 284 12 260 154 212 233 241 189 210 161 155 189 176 235 234 266 198 137 49 285 324 299 260 112 102 102 105 114 127 125 116 119 134 135
319 320 322 321 318 319 319 318 320 318 321 322 315 300 319 61 95 186 213 232 261 243 279 317 316 277 304 307 289 294 294 294 273 260 269 276 133 154 190 184 189 177 151 177 166 253 233 234 266 260 260 148 199 200 226 206 199 248 253 247 229 274 236 221 181 151 181 220 259 286 214 214 232 267 317 337 158 130 134 145 137 117 113 121 126 132 138
319 321 320 318 316 316 315 316 314 313 318 315 327 326 304 73 31 120 127 4 7 324 298 258 262 299 302 228 248 277 283 287 290 290 288 252 214 196 178 160 202 148 192 234 189 225 205 272 332 287 316 283 130 137 192 155 265 305 267 233 228 215 221 254 272 177 166 231 305 6 31 16 343 22 16 5 236 141 110 129 138 127 131 124 138 147 163
320 319 316 314 313 311 310 312 311 310 296 293 271 257 228 266 240 302 307 324 329 285 272 299 297 287 285 294 274 298 299 293 279 261 267 175 209 190 222 165 211 177 161 185 213 236 234 208 191 263 298 269 13 170 127 170 208 244 264 256 242 231 197 255 28 20 19 214 77 20 10 353 15 46 301 296 282 224 133 150 146 126 114 118 127 137 159
317 316 312 311 308 308 304 303 303 303 282 271 272 276 276 275 273 271 272 259 223 244 251 274 276 301 277 279 308 303 321 325 306 180 286 204 196 174 200 218 150 171 211 139 195 204 221 187 205 248 252 190 205 207 167 208 220 233 245 258 251 188 204 85 81 36 31 12 89 122 72 297 338 337 300 293 236 143 132 136 133 116 113 114 117 114 106
308 307 308 306 304 300 298 297 297 293 282 267 282 246 236 240 263 261 190 155 208 242 250 268 293 284 282 299 324 287 7 347 292 227 213 285 168 135 201 169 202 159 193 179 246 243 318 49 176 226 326 277 169 103 260 259 245 251 258 242 214 162 140 76 52 68 29 7 60 111 96 223 272 12 18 1 343 344 76 137 131 117 122 124 140 155 157
307 305 305 301 298 297 299 297 295 203 239 253 235 221 320 299 273 182 157 165 146 239 219 229 203 286 307 320 337 278 332 334 344 328 246 262 150 158 184 98 345 153 266 172 326 190 191 224 171 134 239 245 75 230 245 246 272 285 285 224 233 147 107 73 359 259 287 325 35 25 33 84 78 48 358 346 353 0 7 319 146 133 123 139 149 161 156
305 303 300 301 300 300 297 268 170 224 218 242 241 196 232 255 342 229 235 308 183 291 307 314 308 280 326 317 330 295 349 305 301 331 328 284 24 316 117 124 91 248 175 145 213 198 207 236 116 264 249 168 223 203 272 315 301 269 173 175 203 169 166 166 168 116 18 22 36 30 25 35 91 115 76 355 13 357 7 38 356 129 144 156 165 164 139
302 300 302 302 302 123 261 232 169 188 242 253 288 291 294 276 247 198 137 302 231 249 255 308 279 247 222 281 281 273 349 338 335 346 5 21 317 284 45 57 177 222 109 261 234 183 252 222 144 247 350 194 218 253 276 326 354 329 328 20 55 105 121 153 169 126 65 20 18 25 39 26 21 29 61 359 343 357 30 25 276 180 159 169 165 163 177
301 302 297 334 310 301 232 14 120 260 290 294 287 280 136 135 181 199 180 230 196 175 215 206 251 270 244 232 266 260 331 284 340 355 329 265 347 318 309 117 216 125 42 319 254 200 247 88 184 163 245 266 237 230 20 6 342 346 333 338 14 45 90 114 107 86 80 20 349 343 1 359 338 321 236 240 268 305 267 276 326 39 130 151 168 168 157
307 288 272 221 267 294 254 288 318 316 292 263 209 299 233 183 222 229 201 197 165 218 174 211 254 201 199 204 260 266 225 341 331 317 18 293 58 322 324 267 299 61 172 297 286 7 214 292 235 93 144 308 335 327 342 351 10 4 347 333 335 340 34 60 91 123 144 167 200 205 196 212 249 277 283 270 261 285 289 305 329 12 95 144 162 273 204
27 344 325 293 256 269 305 294 338 327 284 314 193 203 271 184 141 274 181 187 243 194 142 241 218 212 194 211 233 331 147 139 160 315 158 299 250 193 273 43 272 68 211 166 248 358 112 207 276 90 207 260 254 285 345 2 29 353 344 329 331 338 349 68 85 108 133 181 227 239 201 198 189 181 210 237 290 335 310 305 308 352 148 202 188 43 20
14 322 321 304 307 314 305 317 314 241 263 275 251 237 242 282 217 218 266 254 244 250 219 244 222 203 228 225 230 254 270 95 50 95 102 218 241 87 343 229 225 101 284 216 264 74 54 71 347 134 215 243 235 284 339 18 13 344 337 332 339 354 10 27 43 46 63 34 14 23 32 70 83 122 210 233 303 308 328 321 310 326 29 67 58 57 63
319 254 270 298 282 279 290 266 206 281 240 216 94 290 214 231 131 23 222 186 209 167 253 235 279 278 270 228 224 205 259 182 158 162 114 310 278 167 233 261 6 125 227 251 89 43 73 116 292 305 257 261 302 12 31 9 356 358 332 336 341 351 4 18 28 16 35 49 33 43 38 56 71 54 236 203 156 75 48 46 30 29 53 70 75 56 43
283 267 231 260 268 235 222 335 248 132 66 332 33 347 321 344 277 300 258 202 277 288 253 155 231 258 265 239 330 260 208 215 134 67 89 253 263 97 186 339 74 87 253 357 70 70 54 229 236 271 279 267 307 40 336 349 338 337 309 315 323 337 18 18 23 31 25 47 54 50 50 53 43 32 43 80 65 34 17 45 53 53 98 105 92 133 153
274 232 203 220 254 288 92 355 278 24 345 349 98 7 289 299 350 329 292 285 295 302 281 337 303 39 317 303 272 276 81 131 19 68 219 235 174 273 87 251 202 247 42 28 30 86 233 220 185 216 254 265 192 337 345 8 347 348 348 334 340 3 11 18 33 47 36 30 40 41 51 56 52 32 32 40 57 64 16 10 18 67 105 126 145 172 186
349 354 286 351 311 263 52 336 323 120 199 265 204 253 301 335 306 252 250 233 113 258 265 253 284 280 277 281 317 260 125 212 265 183 226 196 41 327 116 250 250 55 86 197 325 262 272 274 276 297 288 106 99 40 17 353 344 348 306 319 356 13 20 23 20 45 48 53 44 47 48 50 58 47 40 36 26 68 77 32 8 73 99 109 125 149 217
285 193 15 60 324 307 110 253 54 350 269 212 268 295 297 268 297 301 259 126 218 259 275 274 276 268 275 246 157 234 290 124 95 251 154 80 94 247 287 293 89 66 56 32 166 234 242 238 39 11 336 349 68 38 9 349 343 348 27 14 342 358 357 9 14 30 40 66 39 54 42 52 67 52 20 358 37 38 35 33 65 99 109 113 131 161 205
308 310 213 130 161 270 163 187 248 202 266 303 288 301 283 278 272 270 223 206 247 259 269 264 256 238 259 298 343 335 252 253 191 281 58 78 264 263 69 55 341 33 81 40 329 278 270 262 192 185 219 89 50 32 29 5 355 6 40 36 6 344 337 352 5 2 355 45 43 18 355 20 58 52 40 22 1 6 23 36 59 107 120 135 157 164 178
303 264 308 114 249 229 248 245 328 301 266 249 270 285 291 303 359 331 301 268 258 296 297 322 335 345 338 303 97 232 268 349 23 315 20 207 285 16 13 149 255 340 214 202 219 222 250 228 327 315 210 183 131 66 22 7 354 15 69 57 28 17 6 358 324 309 328 340 30 43 36 17 13 20 22 17 359 353 353 350 9 100 125 129 145 155 167
254 151 144 215 236 285 292 324 344 312 298 301 299 317 329 345 316 302 307 306 299 286 264 252 245 279 281 246 246 264 336 312 61 267 310 25 107 191 205 147 82 327 283 161 254 226 207 225 252 292 282 89 59 40 333 300 343 357 19 63 70 324 326 15 352 3 60 71 73 68 50 50 44 39 31 28 17 347 339 352 358 11 143 153 153 158 174
343 326 293 260 336 299 265 289 331 300 319 328 329 312 287 270 290 280 255 271 270 308 320 5 27 135 255 3 325 338 34 1 265 317 60 315 258 42 53 5 239 199 236 273 260 272 245 236 335 359 6 32 19 22 335 322 348 341 298 268 353 16 334 355 322 334 6 53 71 76 68 50 34 33 31 12 342 334 351 356 3 2 3 113 151 159 170
267 208 228 219 222 257 7 323 308 310 311 305 306 305 313 280 233 265 253 261 340 350 12 11 283 349 350 18 48 38 312 247 44 290 178 229 272 13 145 189 240 214 220 222 213 249 218 203 169 102 7 7 312 285 279 301 320 308 308 307 7 10 319 338 357 65 73 69 66 58 46 21 5 17 348 14 15 14 4 359 358 18 33 36 95 144 180
25 273 249 239 232 247 245 257 265 252 253 260 268 261 317 313 301 293 290 21 20 36 317 296 36 6 44 58 272 239 320 38 276 15 28 300 309 109 231 209 234 251 254 293 279 243 182 177 170 171 194 237 297 292 299 295 295 2 51 46 35 38 40 40 38 43 60 51 51 56 13 331 323 340 8 8 15 32 20 343 331 337 357 354 343 346 338